Zurück zum Katalog

STARLINK-36903

AktivKommunikationVLEO
NORAD 68001·PAYLOAD·🇺🇸 United States

Gestartet Feb 27, 2026 von Vandenberg Space Force Base

Loading…

Nächste Überflüge (nächste 24 Stunden)

TLE

AktuellSource: CelesTrak SupGP

Epoche: Sep 14, 2026, 23:24 UTC

1 68001C 26039R   26257.97548611  .00046872  00000+0  16973-2 0  2579
2 68001  43.0006  60.3546 0001501 277.3548 223.6537 15.27562596    14

Verfolge STARLINK-36903 in Echtzeit mit AllMySat

Download on the App Store